Regional Weather Roundup
Issued by NWS

Home | Current Version | Previous Version | Graphics & Text | Print | Product List | Glossary On
Versions: 1 2 3 4 5 6 7 8 9 10 11 12 13 14 15 16 17 18 19 20 21 22 23 24 25 26 27 28 29 30 31 32 33 34 35 36 37 38 39 40 41 42 43 44 45 46 47 48 49 50
000
ASUS43 KDMX 130207
RWRIA

WEATHER ROUNDUP FOR IOWA
NATIONAL WEATHER SERVICE DES MOINES IA
900 PM CDT SAT JUL 12 2014

NOTE: "FAIR" INDICATES FEW OR NO CLOUDS BELOW 12,000 FEET WITH NO
SIGNIFICANT WEATHER AND/OR OBSTRUCTIONS TO VISIBILITY.

* - THESE STATIONS ARE NOT NWS STATIONS...THUS NOT UNDER NWS
QUALITY CONTROL.  THEY ALSO DO NOT REPORT WEATHER SUCH
AS PRECIPITATION OR FOG.

IAZ001>003-012>014-020>022-031>034-043>046-130300-
   NORTHWEST IOWA

CITY           SKY/WX    TMP DP  RH WIND       PRES   REMARKS
CARROLL *      CLEAR     68  66  94 N5        29.98S
CHEROKEE *     CLEAR     72  70  93 CALM      30.00S
DENISON *      CLEAR     70  68  94 N3        29.98S
LE MARS *      CLEAR     73  70  88 CALM      30.00S
ORANGE CITY *  CLEAR     73  68  83 W3        30.00S
SHELDON *      PTCLDY    72  70  94 W6        29.99S
SIOUX CITY     CLEAR     73  68  84 NW3       30.00S
SPENCER        PTCLDY    73  68  84 W7        29.99R
STORM LAKE *   CLEAR     70  70 100 W7        30.01S
$$

IAZ055>058-069>071-079>083-090>094-130300-
   SOUTHWEST IOWA

CITY           SKY/WX    TMP DP  RH WIND       PRES   REMARKS
ATLANTIC *     CLOUDY    72  68  88 N9        29.98R
AUDUBON *      CLEAR     72  70  94 CALM      30.00S
CLARINDA *     MOCLDY    79  75  89 N7        29.96R HX  82
COUNCIL BLFS * MOCLDY    73  72  94 N7        29.98R
CRESTON *      CLOUDY    77  73  88 NE6       29.98R
HARLAN  *      CLEAR     72  68  88 N5        30.02S
LAMONI         CLOUDY    78  70  76 W6        29.95R HX  80
RED OAK *      CLOUDY    77  73  88 N9        29.97R
SHENANDOAH *   PTCLDY    77  73  88 NE6       29.96R
$$

IAZ047>049-059>061-072>074-084-130300-
   CENTRAL IOWA

CITY           SKY/WX    TMP DP  RH WIND       PRES   REMARKS
AMES           PTCLDY    70  67  90 N6        29.95F
ANKENY *       MOCLDY    72  68  88 N7        29.95R
CHARITON *     CLOUDY    75  73  94 W7        29.95R
DES MOINES     CLOUDY    74  67  78 N9        29.95R
GRINNELL*      CLOUDY    68  66  94 N8        29.95S
KNOXVILLE *    LGT RAIN  75  73  94 NW7       29.93S
MARSHALLTOWN   PTCLDY    67  66  97 N3        29.94S
PELLA *        HVY RAIN  74  71  90 NW12      29.95R
PERRY *          N/A     70  68  94 CALM      29.97S
$$

IAZ004>006-015-016-023>025-035-036-130300-
   NORTH CENTRAL IOWA

CITY           SKY/WX    TMP DP  RH WIND       PRES   REMARKS
ALGONA *         N/A     72  70  94 W5        29.98S
CLARION *      CLEAR     68  68 100 CALM      29.97S
ESTHERVILLE    MOCLDY    73  68  84 N6        29.99R
FORT DODGE *   CLEAR     70  66  88 CALM      29.99R
MASON CITY     CLEAR     69  67  93 W5        29.98R
FOREST CITY *  MOCLDY    70  70 100 CALM      29.97R
IOWA FALLS *     N/A     68  64  88 W3        29.97S
$$

IAZ007>011-017>019-026>030-037>042-050>054-066-130300-
   NORTHEAST IOWA

CITY           SKY/WX    TMP DP  RH WIND       PRES   REMARKS
CEDAR RAPIDS   CLOUDY    70  67  90 N14       29.92R
CHARLES CITY * MOCLDY    66  66 100 W6        29.96R
CLINTON *      CLOUDY    79  73  83 W16G25    29.86F HX  82
DECORAH *        N/A    N/A N/A N/A MISG        N/A
DUBUQUE        TSTM      68  68 100 N9        29.94R
MONTICELLO *   LGT RAIN  68  68 100 N9        29.92R
OELWEIN *      CLOUDY    66  66 100 N3        29.95R
WATERLOO       MOCLDY    67  65  93 W3        29.93R
$$

IAZ064-065-067-068-078-130300-
   EAST CENTRAL IOWA

CITY           SKY/WX    TMP DP  RH WIND       PRES   REMARKS
DAVENPORT      LGT RAIN  76  72  87 W18G35    29.88R
IOWA CITY      CLOUDY    74  73  97 W15       29.90S
MT. PLEASANT * LGT RAIN  73  65  78 W13G25    29.91R
MUSCATINE *    DRIZZLE   75  72  88 N3        29.88F
QUAD CITIES    TSTM      80  75  84 SW13G25   29.85F HX  85
$$

IAZ062-063-075>077-085>089-095>099-130300-
   SOUTHEAST IOWA

CITY           SKY/WX    TMP DP  RH WIND       PRES   REMARKS
BURLINGTON     CLOUDY    82  74  76 SW9       29.89F THUNDER HX  88
FAIRFIELD *    DRIZZLE   72  68  88 SW9       29.94F
FORT MADISON * CLOUDY    84  75  74 SW12      29.91F HX  92
KEOKUK *       CLOUDY    82  73  74 SW10      29.90F HX  88
OSKALOOSA *    LGT RAIN  73  70  93 W9        29.92F
CENTERVILLE *  CLEAR     79  75  89 NW12G18   29.96R HX  82
OTTUMWA        LGT RAIN  72  70  93 SW9       29.92F FOG
WASHINGTON *   CLOUDY    73  70  88 W15G22    29.91R
$$

ABBREVIATIONS USED IN REMARKS
   TC - TEMPERATURES IN CELSIUS
  WCI - WIND CHILL INDEX
   HX - HEAT INDEX
  VSB - VISIBILITY
$$



USA.gov is the U.S. government's official web portal to all federal, state and local government web resources and services.